Location: Newark
(23.3970°S, 47.6010°W)
Time: 16:17:15
(UTC+00:00)

deb Explorer IX - Pass Details

Date: 22 February 2020
Orbit: 547 x 1100 km, 38.8° (Epoch: 02 April)

Event Time Altitude Azimuth Distance (km) Brightness Sun altitude
Rises 04:56:58 0° 236° (SW) 3,915 - -49.3°
Reaches altitude 10° 05:00:18 10° 223° (SW) 2,967 - -48.8°
Maximum altitude 05:06:14 26° 170° (S) 2,009 - -48.0°
Exits shadow 05:09:15 20° 135° (SE) 2,263 ? -47.5°
Drops below altitude 10° 05:11:56 10° 115° (ESE) 2,843 ? -47.1°
Sets 05:15:03 0° 103° (ESE) 3,721 ? -46.7°
